This is the latest recevied weather packets stored in our database for station/object KO6LQJ. If no packets are shown the sender has not sent any weather packets the latest 10 day(s).
| Time | Temp. | Humidity | Pressure | Rain* | Wind** | Luminosity | Snow |
|---|---|---|---|---|---|---|---|
| 1777841129 | 16.67° C | 70% | 1015.5 hPa | 0 mm | - | 83 W/m² | - |
| 1777840826 | 16.67° C | 71% | 1015.5 hPa | 0 mm | - | 72 W/m² | - |
| 1777840523 | 16.67° C | 71% | 1015.5 hPa | 0 mm | - | 89 W/m² | - |
| 1777840220 | 16.67° C | 72% | 1015.6 hPa | 0 mm | - | 127 W/m² | - |
| 1777839918 | 16.67° C | 73% | 1015.7 hPa | 0 mm | - | 232 W/m² | - |
| 1777839615 | 16.11° C | 73% | 1015.9 hPa | 0 mm | - | 161 W/m² | - |
| 1777839314 | 16.11° C | 74% | 1015.7 hPa | 0 mm | - | 163 W/m² | - |
| 1777839010 | 16.11° C | 75% | 1015.9 hPa | 0 mm | - | 176 W/m² | - |
| 1777838706 | 16.11° C | 75% | 1015.8 hPa | 0 mm | - | 192 W/m² | - |
| 1777838403 | 16.11° C | 76% | 1016.1 hPa | 0 mm | - | 145 W/m² | - |
| 1777838100 | 16.11° C | 77% | 1016.1 hPa | 0 mm | - | 143 W/m² | - |
| 1777837796 | 15.56° C | 77% | 1015.8 hPa | 0 mm | - | 149 W/m² | - |
| 1777837495 | 15.56° C | 77% | 1016 hPa | 0 mm | - | 115 W/m² | - |
| 1777837189 | 15.56° C | 78% | 1016 hPa | 0 mm | - | 104 W/m² | - |
| 1777836885 | 15.56° C | 78% | 1016.1 hPa | 0 mm | - | 126 W/m² | - |
| 1777836580 | 15.56° C | 79% | 1016.3 hPa | 0 mm | - | 113 W/m² | - |
| 1777836277 | 15° C | 80% | 1016.3 hPa | 0 mm | - | 115 W/m² | - |
| 1777835973 | 15° C | 82% | 1016.2 hPa | 0 mm | - | 132 W/m² | - |
| 1777835671 | 15° C | 83% | 1016.3 hPa | 0 mm | - | 125 W/m² | - |
| 1777835367 | 14.44° C | 85% | 1016.4 hPa | 0 mm | - | 129 W/m² | - |
| 1777835065 | 14.44° C | 87% | 1016.4 hPa | 0 mm | - | 173 W/m² | - |
| 1777834761 | 13.89° C | 88% | 1016.4 hPa | 0 mm | - | 182 W/m² | - |
| 1777834458 | 14.44° C | 88% | 1016.5 hPa | 0 mm | - | 197 W/m² | - |
| 1777834156 | 14.44° C | 88% | 1016.6 hPa | 0 mm | - | 215 W/m² | - |
| 1777833854 | 14.44° C | 88% | 1016.5 hPa | 0 mm | - | 196 W/m² | - |
* Rain latest hour (hover to see other rain measurements)
** Current wind speed in m/s (hover to see current wind gust speed)